time_stamp(utc),avg(mph),gust(mph),direction(deg),12m_air_temp(f),sonic_u(cm/s),sonic_v(cm/s),sonic_w(cm/s),pressure,2m_air_temp(f),pyranometer(W/m^2)
"2018-03-20 00:02:58+00",7.7,8.7,,37.7,265,-194,1,1013.97,36.5,0
"2018-03-20 00:07:58+00",7.7,8.7,,37.5,303,-143,3,1013.93,36.3,0
"2018-03-20 00:12:58+00",7.4,8.4,,37.5,303,-117,10,1013.8,36.1,0
"2018-03-20 00:17:58+00",7.7,8.7,,37.6,323,-96,6,1013.81,36,0
"2018-03-20 00:22:58+00",8.9,8.9,,37.7,383,-97,5,1013.77,36,0
"2018-03-20 00:27:58+00",7.4,8.4,,37.7,315,-85,8,1013.73,36.1,0
"2018-03-20 00:32:58+00",7.3,8.3,,37.7,308,-90,5,1013.69,35.9,0
"2018-03-20 00:37:58+00",8.8,9.8,,37.6,370,-120,5,1013.79,35.7,0
"2018-03-20 00:42:58+00",7.9,8.9,,37.8,330,-98,12,1013.78,35.8,0
"2018-03-20 00:47:58+00",6.6,7.6,,37.7,271,-97,0,1013.71,35.7,0
"2018-03-20 00:52:58+00",8.2,9.2,,37.8,336,-124,3,1013.62,35.6,0
"2018-03-20 00:57:58+00",7.7,8.7,,37.9,326,-96,7,1013.56,35.6,0
"2018-03-20 01:02:58+00",9.0,10.0,,37.8,384,-91,11,1013.54,35.7,0
"2018-03-20 01:07:58+00",8.0,9.0,,37.6,341,-86,7,1013.55,35.7,0
"2018-03-20 01:12:58+00",7.4,8.4,,37.5,311,-114,7,1013.53,35.6,0
"2018-03-20 01:17:58+00",7.9,8.9,,37.7,285,-186,9,1013.78,35.6,0
"2018-03-20 01:22:58+00",7.4,8.4,,37.8,229,-228,7,1014.04,35.7,0
"2018-03-20 01:27:58+00",8.0,9.0,,37.9,270,-216,1,1014.05,35.9,0
"2018-03-20 01:32:58+00",7.1,8.1,,38,249,-175,3,1014.03,36.1,0
"2018-03-20 01:37:58+00",7.2,8.2,,37.9,221,-222,2,1014.05,36,0
"2018-03-20 01:42:58+00",6.8,7.8,,38,233,-175,2,1013.88,36,0
"2018-03-20 01:47:58+00",6.5,7.5,,38,233,-147,4,1013.82,35.9,0
"2018-03-20 01:52:58+00",7.3,8.3,,38.1,249,-188,4,1013.96,35.6,0
"2018-03-20 01:57:58+00",6.3,7.3,,38.1,207,-173,3,1014.15,35.6,0
"2018-03-20 02:02:58+00",6.9,7.9,,38,217,-202,3,1014.14,35.6,0
"2018-03-20 02:07:58+00",7.0,7.0,,38.2,236,-180,3,1013.94,35.6,0
"2018-03-20 02:12:58+00",6.3,7.3,,38.2,247,-115,6,1013.83,35.5,0
"2018-03-20 02:17:58+00",7.0,8.0,,38.2,272,-133,7,1013.81,35.3,0
"2018-03-20 02:22:58+00",5.9,6.9,,38.3,255,-39,11,1013.82,35.3,0
"2018-03-20 02:27:58+00",6.2,6.2,,38.2,257,-68,11,1013.85,35.2,0
"2018-03-20 02:32:58+00",6.6,6.6,,38.3,281,-67,11,1013.79,35,0
"2018-03-20 02:37:58+00",6.3,6.3,,38.3,264,-67,10,1013.8,34.9,0
"2018-03-20 02:42:58+00",6.9,7.9,,38.3,285,-100,7,1013.87,34.9,0
"2018-03-20 02:47:58+00",7.4,8.4,,38.4,309,-85,10,1013.93,34.9,0
"2018-03-20 02:52:58+00",6.8,7.8,,38.4,290,-51,12,1013.84,34.9,0
"2018-03-20 02:57:58+00",7.1,8.1,,38.3,300,-76,8,1013.94,35.1,0
"2018-03-20 03:02:58+00",6.7,6.7,,38.3,274,-98,6,1014.18,35.1,0
"2018-03-20 03:07:58+00",6.1,6.1,,38.3,248,-88,6,1014.08,35.2,0
"2018-03-20 03:12:58+00",5.7,5.7,,38.4,228,-84,9,1014.21,35.2,0
"2018-03-20 03:17:58+00",5.9,5.9,,38.4,232,-108,13,1014.2,35.2,0
"2018-03-20 03:22:58+00",5.7,5.7,,38.3,204,-122,6,1014.24,35.3,0
"2018-03-20 03:27:58+00",5.6,6.6,,38.3,221,-96,2,1014.16,35.2,0
"2018-03-20 03:32:58+00",5.9,5.9,,38.4,216,-128,10,1014.13,35.1,0
"2018-03-20 03:37:58+00",5.5,6.5,,38.3,202,-115,7,1014.07,35,0
"2018-03-20 03:42:58+00",5.6,6.6,,38.3,199,-134,6,1014.01,34.9,0
"2018-03-20 03:47:58+00",6.6,6.6,,38.4,236,-150,4,1013.93,34.9,0
"2018-03-20 03:52:58+00",6.4,7.4,,38.6,263,-86,8,1013.91,34.9,0
"2018-03-20 03:57:58+00",7.1,7.1,,38.5,306,-49,15,1013.76,34.8,0
"2018-03-20 04:02:58+00",7.6,7.6,,38.5,325,-55,17,1013.81,35,0
"2018-03-20 04:07:58+00",7.2,7.2,,38.5,310,-50,15,1013.76,35.2,0
"2018-03-20 04:12:58+00",7.0,7.0,,38.6,304,-18,16,1013.86,35.1,0
"2018-03-20 04:17:58+00",7.1,7.1,,38.6,308,-8,19,1013.75,35,0
"2018-03-20 04:22:58+00",6.6,6.6,,38.5,284,26,20,1013.98,34.9,0
"2018-03-20 04:27:58+00",7.4,8.4,,38.4,322,19,19,1013.92,34.7,0
"2018-03-20 04:32:58+00",7.4,8.4,,38.3,319,33,20,1013.89,34.6,0
"2018-03-20 04:37:58+00",7.5,7.5,,38.3,323,55,24,1013.83,34.6,0
"2018-03-20 04:42:58+00",8.2,9.2,,38.4,346,87,28,1013.83,34.5,0
"2018-03-20 04:47:58+00",7.9,8.9,,38.4,336,86,21,1013.78,34.6,0
"2018-03-20 04:52:58+00",8.2,9.2,,38.3,351,73,24,1013.76,34.6,0
"2018-03-20 04:57:58+00",8.2,9.2,,38.2,352,73,27,1013.67,34.6,0
"2018-03-20 05:02:58+00",7.7,8.7,,37.9,323,88,20,1013.62,34.4,0
"2018-03-20 05:07:58+00",7.6,8.6,,37.9,323,87,21,1013.69,34.4,0
"2018-03-20 05:12:58+00",6.8,7.8,,37.9,286,76,17,1013.62,34.4,0
"2018-03-20 05:17:58+00",7.7,7.7,,37.9,327,102,18,1013.67,34.5,0
"2018-03-20 05:22:58+00",8.7,9.7,,37.9,338,165,20,1013.54,34.5,0
"2018-03-20 05:27:58+00",7.6,8.6,,38.1,323,120,16,1013.65,34.7,0
"2018-03-20 05:32:58+00",7.1,7.1,,37.9,301,70,21,1013.67,35,0
"2018-03-20 05:37:58+00",7.4,8.4,,37.8,311,66,21,1013.71,35,0
"2018-03-20 05:42:58+00",8.2,9.2,,37.9,360,16,25,1013.65,35.1,0
"2018-03-20 05:47:58+00",9.2,10.2,,38,399,54,27,1013.44,35.3,0
"2018-03-20 05:52:58+00",10.0,10.0,,38.1,441,33,25,1013.48,35.6,0
"2018-03-20 05:57:58+00",10.5,12.5,,38.2,459,66,30,1013.46,35.8,0
"2018-03-20 06:02:58+00",11.1,12.1,,38.2,489,79,29,1013.35,36.1,0
"2018-03-20 06:07:58+00",10.2,11.2,,38.2,443,83,27,1013.43,36.2,0
"2018-03-20 06:12:58+00",10.5,12.5,,38.2,459,95,29,1013.36,36.3,0
"2018-03-20 06:17:58+00",11.7,12.7,,38.2,504,114,25,1013.39,36.5,0
"2018-03-20 06:22:58+00",10.6,11.6,,38.3,457,143,26,1013.38,36.7,0
"2018-03-20 06:27:58+00",10.4,12.4,,38.2,449,150,24,1013.37,36.8,0
"2018-03-20 06:32:58+00",8.6,9.6,,38,369,119,29,1013.34,36.7,0
"2018-03-20 06:37:58+00",10.9,12.9,,38.2,467,111,28,1013.4,36.8,0
"2018-03-20 06:42:58+00",9.2,11.2,,38.2,400,74,22,1013.69,36.7,0
"2018-03-20 06:47:58+00",8.4,9.4,,38.3,371,15,27,1013.73,36.7,0
"2018-03-20 06:52:58+00",9.0,11.0,,38.4,395,18,26,1013.56,36.7,0
"2018-03-20 06:57:58+00",11.0,13.0,,38.4,492,25,17,1013.45,36.9,0
"2018-03-20 07:02:58+00",11.1,12.1,,38.5,493,60,26,1013.24,37.1,0
"2018-03-20 07:07:58+00",12.7,13.7,,38.5,559,47,37,1013.13,37.2,0
"2018-03-20 07:12:58+00",13.7,14.7,,38.7,604,27,33,1012.96,37.4,0
"2018-03-20 07:17:58+00",11.7,13.7,,38.6,515,84,28,1012.85,37.5,0
"2018-03-20 07:22:58+00",12.0,13.0,,38.5,539,75,28,1012.87,37.5,0
"2018-03-20 07:27:58+00",11.7,12.7,,38.6,516,70,33,1012.71,37.5,0
"2018-03-20 07:32:58+00",13.3,16.3,,38.7,590,65,36,1012.54,37.6,0
"2018-03-20 07:37:58+00",11.5,13.5,,38.7,506,85,31,1012.48,37.6,0
"2018-03-20 07:42:58+00",13.7,15.7,,38.7,603,92,31,1012.37,37.7,0
"2018-03-20 07:47:58+00",11.9,14.9,,38.8,531,48,43,1012.29,37.9,0
"2018-03-20 07:52:58+00",15.3,17.3,,38.9,684,97,34,1012.33,37.9,0
"2018-03-20 07:57:58+00",16.6,18.6,,38.9,743,76,36,1012.29,38,0
"2018-03-20 08:02:58+00",15.3,17.3,,38.9,683,92,53,1012.28,38,0
"2018-03-20 08:07:58+00",19.4,21.4,,38.8,859,124,37,1012.19,38,0
"2018-03-20 08:12:58+00",15.4,17.4,,38.6,687,69,45,1012.23,38,0
"2018-03-20 08:17:58+00",17.3,19.3,,38.6,759,119,38,1012.27,37.9,0
"2018-03-20 08:22:58+00",18.6,20.6,,38.6,819,165,38,1012.26,37.9,0
"2018-03-20 08:27:58+00",19.0,22.0,,38.6,841,109,45,1012.26,37.9,0
"2018-03-20 08:32:58+00",18.3,21.3,,38.7,817,106,28,1012.22,37.9,0
"2018-03-20 08:37:58+00",18.9,21.9,,38.7,849,15,33,1012.03,38,0
"2018-03-20 08:42:58+00",21.9,23.9,,38.8,971,119,48,1012.01,38.1,0
"2018-03-20 08:47:58+00",21.4,24.4,,38.6,958,6,44,1011.92,38.1,0
"2018-03-20 08:52:58+00",16.6,19.6,,38.5,747,41,58,1011.99,38,0
"2018-03-20 08:57:58+00",18.4,20.4,,38.4,824,44,52,1011.78,37.8,0
"2018-03-20 09:02:58+00",19.9,22.9,,38.4,886,159,51,1011.74,37.7,0
"2018-03-20 09:07:58+00",21.1,23.1,,38.3,938,151,36,1011.58,37.6,0
"2018-03-20 09:12:58+00",18.5,22.5,,38.2,801,164,51,1011.62,37.6,0
"2018-03-20 09:17:58+00",18.5,19.5,,38.1,810,196,41,1011.67,37.5,0
"2018-03-20 09:22:58+00",20.1,22.1,,38.1,876,208,55,1011.56,37.4,0
"2018-03-20 09:27:58+00",20.8,23.8,,38.1,916,248,47,1011.73,37.5,0
"2018-03-20 09:32:58+00",21.1,24.1,,38.2,935,121,44,1011.79,37.5,0
"2018-03-20 09:37:58+00",19.5,22.5,,38,839,283,56,1011.79,37.4,0
"2018-03-20 09:42:58+00",22.3,23.3,,38,980,186,48,1011.88,37.4,0
"2018-03-20 09:47:58+00",21.0,24.0,,38.1,923,219,49,1011.96,37.4,0
"2018-03-20 09:52:58+00",20.7,24.7,,38,913,180,33,1011.9,37.5,0
"2018-03-20 09:57:58+00",21.9,25.9,,38.2,974,129,72,1011.97,37.5,0
"2018-03-20 10:02:58+00",21.5,26.5,,38.1,946,222,45,1012.03,37.5,0
"2018-03-20 10:07:58+00",21.3,25.3,,38.1,951,119,49,1012.1,37.5,0
"2018-03-20 10:12:58+00",18.1,22.1,,38.1,795,150,54,1012.28,37.6,0
"2018-03-20 10:17:58+00",22.2,25.2,,38.1,984,194,50,1012.06,37.5,0
"2018-03-20 10:22:58+00",23.4,25.4,,38.2,1020,234,47,1012.04,37.6,0
"2018-03-20 10:27:58+00",23.2,27.2,,38.3,1006,162,72,1012.11,37.7,0
"2018-03-20 10:32:58+00",21.9,23.9,,38.1,961,240,46,1012.13,37.7,0
"2018-03-20 10:37:58+00",23.4,26.4,,38.2,1030,208,59,1011.8,37.7,0
"2018-03-20 10:42:58+00",24.6,27.6,,38.2,1092,152,65,1011.73,37.7,0
"2018-03-20 10:47:58+00",23.8,27.8,,38.3,1064,115,50,1011.8,37.8,0
"2018-03-20 10:52:58+00",23.0,25.0,,38.2,1009,270,56,1011.74,37.7,0
"2018-03-20 10:57:58+00",22.8,25.8,,38.2,1002,272,65,1011.77,37.7,0
"2018-03-20 11:02:58+00",20.7,23.7,,38.1,941,198,43,1011.66,37.7,0
"2018-03-20 11:07:58+00",25.7,28.7,,38.2,1130,226,58,1011.53,37.7,0
"2018-03-20 11:12:58+00",22.9,26.9,,38.2,1002,213,63,1011.65,37.7,0
"2018-03-20 11:17:58+00",24.5,27.5,,38.3,1075,255,65,1011.53,37.8,0
"2018-03-20 11:22:58+00",27.0,31.0,,38.3,1184,279,53,1011.59,37.8,0
"2018-03-20 11:27:58+00",26.3,29.3,,38.3,1154,247,53,1011.61,37.8,0
"2018-03-20 11:32:58+00",24.1,26.1,,38.2,1053,288,57,1011.56,37.9,0
"2018-03-20 11:37:58+00",24.1,27.1,,38.3,1065,189,72,1011.63,37.9,0
"2018-03-20 11:42:58+00",23.2,26.2,,38.3,1018,310,54,1011.56,37.9,0
"2018-03-20 11:47:58+00",27.0,31.0,,38.4,1186,253,77,1011.57,38,0
"2018-03-20 11:52:58+00",25.4,29.4,,38.4,1119,247,55,1011.4,38.1,0
"2018-03-20 11:57:58+00",23.8,27.8,,38.4,1041,267,66,1011.43,38.1,0
"2018-03-20 12:02:58+00",25.2,29.2,,38.5,1102,304,62,1011.51,38.1,0
"2018-03-20 12:07:58+00",26.0,30.0,,38.5,1141,295,55,1011.55,38.2,0
"2018-03-20 12:12:58+00",27.2,29.2,,38.5,1174,389,40,1011.42,38.2,0
"2018-03-20 12:17:58+00",25.5,29.5,,38.5,1116,294,61,1011.33,38.2,0
"2018-03-20 12:22:58+00",22.5,24.5,,38.5,978,267,49,1011.48,38.2,0
"2018-03-20 12:27:58+00",21.1,25.1,,38.5,929,231,38,1011.4,38.3,0
"2018-03-20 12:32:58+00",27.5,29.5,,38.5,1193,358,48,1011.41,38.3,0
"2018-03-20 12:37:58+00",23.1,29.1,,38.5,1019,238,74,1011.27,38.4,0
"2018-03-20 12:42:58+00",23.6,29.6,,38.6,1025,304,61,1011.34,38.4,0
"2018-03-20 12:47:58+00",22.1,25.1,,38.6,955,286,58,1011.31,38.5,0
"2018-03-20 12:52:58+00",25.4,28.4,,38.6,1108,322,57,1011.2,38.4,0
"2018-03-20 12:57:58+00",22.6,25.6,,38.7,984,281,54,1011.32,38.5,0
"2018-03-20 13:02:58+00",26.1,29.1,,38.7,1132,324,26,1011.33,38.6,0
"2018-03-20 13:07:58+00",24.5,28.5,,38.8,1084,206,67,1011.46,38.6,0
"2018-03-20 13:12:58+00",23.1,25.1,,38.9,1012,186,60,1011.55,38.7,0
"2018-03-20 13:17:58+00",19.2,22.2,,38.9,854,216,70,1011.53,38.7,0
"2018-03-20 13:22:58+00",23.0,30.0,,39,1006,219,53,1011.53,38.8,0
"2018-03-20 13:27:58+00",21.9,26.9,,38.9,964,203,52,1011.48,38.8,0
"2018-03-20 13:32:58+00",23.9,28.9,,39,1050,257,65,1011.64,38.8,0
"2018-03-20 13:37:58+00",25.7,27.7,,38.9,1105,381,42,1011.48,38.8,0
"2018-03-20 13:42:58+00",26.2,29.2,,38.9,1119,405,39,1011.58,38.7,0
"2018-03-20 13:47:58+00",21.0,25.0,,38.7,909,280,81,1011.64,38.6,0
"2018-03-20 13:52:58+00",26.6,30.6,,38.5,1156,342,60,1011.58,38.5,0
"2018-03-20 13:57:58+00",20.7,23.7,,37.9,904,216,66,1011.62,38,0
"2018-03-20 14:02:58+00",21.6,26.6,,37.8,936,267,57,1011.57,37.4,0
"2018-03-20 14:07:58+00",25.9,31.9,,37.5,1136,269,73,1011.47,36.9,2
"2018-03-20 14:12:58+00",27.7,29.7,,37.3,1224,312,63,1011.38,36.4,3
"2018-03-20 14:17:58+00",29.3,32.3,,37,1294,241,56,1011.33,36.2,18.3
"2018-03-20 14:22:58+00",27.2,30.2,,36.7,1207,245,55,1011.42,35.9,17.3
"2018-03-20 14:27:58+00",24.8,30.8,,36.4,1100,268,49,1011.29,35.6,25.3
"2018-03-20 14:32:58+00",29.0,32.0,,36,1279,192,43,1011.31,35.2,23.7
"2018-03-20 14:37:58+00",31.1,33.1,,35.8,1373,284,69,1011.14,34.9,27.8
"2018-03-20 14:42:58+00",29.0,34.0,,35.6,1274,186,53,1011.05,34.9,22.3
"2018-03-20 14:47:58+00",26.0,31.0,,35.6,1150,206,73,1010.78,34.9,34.5
"2018-03-20 14:52:58+00",27.5,31.5,,35.5,1201,363,65,1010.54,35,66.2
"2018-03-20 14:57:58+00",27.1,31.1,,35.6,1194,281,79,1010.57,35.1,79
"2018-03-20 15:02:58+00",29.3,32.3,,35.4,1278,310,72,1010.72,35,33
"2018-03-20 15:07:58+00",26.0,32.0,,35.5,1147,308,71,1010.44,35.1,26.6
"2018-03-20 15:12:58+00",28.0,35.0,,35.6,1229,343,49,1010.46,35.2,19.7
"2018-03-20 15:17:58+00",23.6,27.6,,35.5,1018,352,70,1010.56,35.2,10.3
"2018-03-20 15:22:58+00",27.5,31.5,,35.5,1173,443,68,1010.37,35.2,0.2
"2018-03-20 15:27:58+00",26.2,32.2,,35.5,1092,465,42,1010.26,35.1,0.5
"2018-03-20 15:32:58+00",23.0,25.0,,35.6,992,369,72,1010.39,35.2,4.2
"2018-03-20 15:37:58+00",25.0,31.0,,35.6,1050,427,77,1010.23,35.2,4.2
"2018-03-20 15:42:58+00",23.2,28.2,,35.6,997,368,66,1010.21,35.2,17.2
"2018-03-20 15:47:58+00",25.5,28.5,,35.5,1071,424,45,1009.94,35.1,26.3
"2018-03-20 15:52:58+00",27.2,32.2,,35.5,1104,493,59,1009.78,35,46.5
"2018-03-20 15:57:58+00",26.6,30.6,,35.4,1110,477,34,1009.76,34.9,46.2
"2018-03-20 16:02:58+00",27.1,30.1,,35.4,1161,450,52,1009.58,34.9,42.5
"2018-03-20 16:07:58+00",29.4,32.4,,35.3,823,526,264,1009.23,34.8,49.1
"2018-03-20 16:12:58+00",29.2,32.2,,35.3,360,477,493,1009.31,34.8,39.9
"2018-03-20 16:17:58+00",27.5,33.5,,35.4,565,389,379,1009.18,34.8,48.7
"2018-03-20 16:22:58+00",29.2,34.2,,35.2,1000,499,189,1008.97,34.9,61.3
"2018-03-20 16:27:58+00",28.7,33.7,,35.3,534,488,381,1008.85,35.1,63.4
"2018-03-20 16:32:58+00",31.3,34.3,,35.5,908,614,223,1008.86,35.2,49.2
"2018-03-20 16:37:58+00",29.5,34.5,,35.3,1129,603,76,1008.7,35.3,44.7
"2018-03-20 16:42:58+00",28.8,32.8,,35.6,1172,509,76,1008.87,35.4,53.5
"2018-03-20 16:47:58+00",29.5,33.5,,35.8,1144,582,57,1008.81,35.6,36.7
"2018-03-20 16:52:58+00",29.5,33.5,,35.8,1231,491,60,1008.82,35.6,40.2
"2018-03-20 16:57:58+00",28.6,32.6,,36,1176,481,80,1008.9,35.6,26.4
"2018-03-20 17:02:58+00",29.0,33.0,,36,1155,553,63,1008.7,35.6,36.4
"2018-03-20 17:07:58+00",27.0,33.0,,36.2,1042,512,115,1008.67,35.7,25.1
"2018-03-20 17:12:58+00",31.1,36.1,,36.2,1077,566,161,1008.46,35.6,27.3
"2018-03-20 17:17:58+00",26.7,31.7,,36.1,1082,476,71,1008.53,35.7,17.4
"2018-03-20 17:22:58+00",28.1,36.1,,36.1,1011,621,94,1008.46,35.8,8.5
"2018-03-20 17:27:58+00",29.2,34.2,,36.2,1056,694,78,1008.51,35.8,1.4
"2018-03-20 17:32:58+00",31.9,35.9,,35.9,1141,776,76,1008.19,35.9,6.3
"2018-03-20 17:37:58+00",28.6,35.6,,35.8,925,663,169,1007.96,35.8,10.9
"2018-03-20 17:42:58+00",30.7,33.7,,35.9,950,651,227,1007.9,35.8,13.2
"2018-03-20 17:47:58+00",32.9,38.9,,35.8,715,722,354,1008.04,35.6,8.9
"2018-03-20 17:52:58+00",28.7,32.7,,35.7,995,677,128,1008.28,35.5,0.4
"2018-03-20 17:57:58+00",35.3,40.3,,35.2,267,902,606,1007.71,35.2,1.8
"2018-03-20 18:02:58+00",30.4,34.4,,34.9,928,794,132,1007.57,34.9,4.4
"2018-03-20 18:07:58+00",34.7,38.7,,34.5,-97,911,740,1007.75,34.8,0
"2018-03-20 18:12:58+00",31.4,36.4,,34.7,799,801,238,1007.67,34.7,0
"2018-03-20 18:17:58+00",30.5,35.5,,34.9,414,793,425,1007.55,34.7,0.3
"2018-03-20 18:22:58+00",32.6,38.6,,34.8,737,810,296,1007.46,34.6,0
"2018-03-20 18:27:58+00",37.2,41.2,,34.4,-955,1952,280,1007.17,34.4,1.1
"2018-03-20 18:32:58+00",33.6,39.6,,34.3,168,953,538,1006.94,34.1,0.6
"2018-03-20 18:37:58+00",35.3,40.3,,34.3,235,1011,513,1006.76,34.1,0.5
"2018-03-20 18:42:58+00",31.2,35.2,,34.4,916,705,175,1006.66,34,1
"2018-03-20 18:47:58+00",32.4,39.4,,34.4,758,772,310,1006.66,34,0
"2018-03-20 18:52:58+00",33.0,42.0,,34.4,672,1052,123,1006.95,34,0
"2018-03-20 18:57:58+00",33.6,38.6,,34.5,1176,726,104,1006.73,33.9,0
"2018-03-20 19:02:58+00",33.3,38.3,,34.5,731,972,197,1006.89,34,0
"2018-03-20 19:07:58+00",29.0,34.0,,34.4,1110,674,63,1007.16,33.8,0
"2018-03-20 19:12:58+00",35.1,38.1,,34.1,696,1031,239,1006.68,33.6,0
"2018-03-20 19:17:58+00",36.8,39.8,,34.1,268,880,616,1006.61,33.5,0
"2018-03-20 19:22:58+00",32.4,38.4,,34.2,855,761,271,1006.8,33.4,0
"2018-03-20 19:27:58+00",32.4,37.4,,34,889,841,220,1007.08,33.4,0
"2018-03-20 19:32:58+00",31.6,35.6,,34.1,381,839,450,1007.24,33.4,0
"2018-03-20 19:37:58+00",33.5,38.5,,34,292,848,548,1006.67,33.2,0
"2018-03-20 19:42:58+00",34.4,38.4,,33.8,183,914,604,1006.84,33,0.4
"2018-03-20 19:47:58+00",27.8,33.8,,33.9,972,692,81,1007.39,33,0
"2018-03-20 19:52:58+00",31.3,37.3,,33.9,936,841,125,1007.37,33,0
"2018-03-20 19:57:58+00",28.7,33.7,,33.9,1023,741,39,1007.05,32.9,0
"2018-03-20 20:02:58+00",32.5,38.5,,33.6,-222,953,654,1007.17,32.6,0
"2018-03-20 20:07:58+00",34.3,36.3,,33.6,-258,930,754,1007.19,32.4,0
"2018-03-20 20:12:58+00",33.3,36.3,,33.5,716,871,330,1006.99,32.2,0
"2018-03-20 20:17:58+00",36.4,40.4,,33.5,-471,463,593,1006.74,32.1,0
"2018-03-20 20:22:58+00",32.0,37.0,,33.5,1186,782,56,1006.76,32.1,0.5
"2018-03-20 20:27:58+00",32.3,36.3,,33.4,1211,789,56,1006.25,32.2,0
"2018-03-20 20:32:58+00",33.2,36.2,,33.5,406,908,469,1006.08,32.4,0
"2018-03-20 20:37:58+00",33.5,36.5,,33.5,640,923,314,1006.21,32.6,1
"2018-03-20 20:42:58+00",32.8,35.8,,33.5,336,935,447,1006.39,32.7,0.3
"2018-03-20 20:47:58+00",30.3,35.3,,33.4,665,853,202,1006.61,32.8,0
"2018-03-20 20:52:58+00",30.5,35.5,,33.5,827,838,154,1006.47,32.8,0
"2018-03-20 20:57:58+00",35.3,43.3,,33.5,129,910,651,1006.44,32.7,0
"2018-03-20 21:02:58+00",30.3,33.3,,33.6,745,835,232,1006.69,32.9,0
"2018-03-20 21:07:58+00",27.8,31.8,,33.6,598,793,215,1006.78,33,0
"2018-03-20 21:12:58+00",30.2,35.2,,33.6,766,823,211,1006.49,32.9,0
"2018-03-20 21:17:58+00",29.5,34.5,,33.7,939,784,107,1006.47,33,0
"2018-03-20 21:22:58+00",36.7,39.7,,33.7,-400,932,931,1006.08,33.1,0.4
"2018-03-20 21:27:58+00",30.8,35.8,,33.9,902,772,198,1006.1,33.3,0
"2018-03-20 21:32:58+00",34.8,39.8,,34,-93,907,727,1006.07,33.4,0
"2018-03-20 21:37:58+00",35.0,41.0,,34.2,-746,886,1001,1005.85,33.5,0
"2018-03-20 21:42:58+00",33.5,43.5,,34.1,-603,902,955,1005.67,33.5,0
"2018-03-20 21:47:58+00",37.8,43.8,,34.2,-1980,1090,1563,1005.54,33.5,0
"2018-03-20 21:52:58+00",37.0,40.0,,34.2,-1687,966,1513,1005.6,33.5,0
"2018-03-20 21:57:58+00",33.9,38.9,,34.3,-89,841,738,1005.68,33.5,0
"2018-03-20 22:02:58+00",36.8,40.8,,34.4,-3221,62,1548,1005.74,33.6,0
"2018-03-20 22:07:58+00",39.8,43.8,,34.5,20000,0,-1,1005.59,33.6,-0.1
"2018-03-20 22:12:58+00",39.8,46.8,,34.3,-4193,932,2736,1005.45,33.6,0
"2018-03-20 22:17:58+00",35.1,39.1,,34.2,-3926,878,2520,1005.71,33.7,0
"2018-03-20 22:22:58+00",34.9,38.9,,34.3,-2229,919,1706,1006.14,33.8,0
"2018-03-20 22:27:58+00",33.6,37.6,,34.5,-1065,922,1095,1006.44,33.8,0
"2018-03-20 22:32:58+00",31.6,34.6,,34.5,321,429,141,1006.72,33.8,0
"2018-03-20 22:37:58+00",34.9,39.9,,34.7,-490,774,730,1006.75,33.9,0
"2018-03-20 22:42:58+00",34.1,37.1,,34.6,-319,908,749,1006.99,33.9,0
"2018-03-20 22:47:58+00",33.8,36.8,,34.7,-957,974,1047,1007.07,33.9,0
"2018-03-20 22:52:58+00",34.4,38.4,,34.7,32,901,636,1007.09,33.9,0
"2018-03-20 22:57:58+00",33.7,38.7,,34.7,-244,927,761,1006.9,33.8,0
"2018-03-20 23:02:58+00",33.8,38.8,,34.7,-1829,977,1405,1006.81,33.8,0
"2018-03-20 23:07:58+00",31.2,34.2,,34.6,-178,928,586,1006.95,33.8,0
"2018-03-20 23:12:58+00",34.2,39.2,,34.6,-1030,1016,986,1006.75,33.8,0
"2018-03-20 23:17:58+00",31.0,37.0,,34.7,-130,892,619,1006.68,33.8,0
"2018-03-20 23:22:58+00",33.2,38.2,,34.8,-173,934,699,1006.76,33.9,0
"2018-03-20 23:27:58+00",34.3,39.3,,34.9,-580,970,907,1006.52,33.9,0
"2018-03-20 23:32:58+00",36.1,40.1,,35,-1874,906,1570,1006.36,34,0
"2018-03-20 23:37:58+00",32.8,35.8,,35,-1042,911,1116,1006.45,34,0
"2018-03-20 23:42:58+00",32.8,37.8,,35,-379,895,809,1006.36,34,0
"2018-03-20 23:47:58+00",32.1,36.1,,35.1,575,876,346,1006.39,34,0
"2018-03-20 23:52:58+00",35.8,39.8,,35.2,-1229,927,1268,1006.62,34.1,0
"2018-03-20 23:57:58+00",30.7,34.7,,35.2,741,827,259,1006.43,34.1,0
